Temperature
9 9 8 8 8 8 7 7 6 6 6 6 5 5 5 4 3 3 2 2 2 2 2 1 1 1 1 1 1 1 1 1 1 1 1 1 0 -0
8 8 8 7 7 7 7 6 6 6 5 5 5 4 4 3 2 2 2 2 1 1 1 1 1 0 0 0 -0 -1 -1 -1 -1 -0 -0 -1 -1 -1
7 7 7 7 6 6 6 6 5 5 4 4 4 3 3 2 2 2 1 1 1 1 0 0 -0 -1 -1 -1 -1 -2 -2 -2 -2 -2 -2 -2 -2 -2
7 6 6 6 5 5 5 5 4 4 3 3 3 3 2 2 1 1 1 1 0 0 -0 -0 -1 -2 -2 -2 -3 -3 -3 -3 -3 -3 -3 -3 -3 -3
6 6 5 5 5 4 4 4 3 3 3 2 2 2 2 1 1 1 0 -0 -0 -1 -1 -2 -2 -3 -3 -3 -4 -4 -4 -3 -3 -3 -3 -3 -3 -3
5 4 4 4 3 3 3 3 2 2 2 2 1 1 1 1 0 0 -0 -1 -1 -2 -2 -3 -3 -3 -3 -3 -3 -3 -3 -3 -3 -3 -3 -3 -3 -3
3 3 2 2 2 2 1 1 1 1 1 1 1 0 0 -0 -0 -1 -1 -2 -3 -3 -3 -3 -4 -3 -3 -4 -3 -3 -3 -3 -3 -3 -3 -4 -4 -4
2 1 1 1 0 0 -0 -0 0 -0 -0 -0 -0 -1 -1 -2 -2 -3 -3 -4 -4 -4 -4 -4 -4 -4 -4 -4 -3 -3 -3 -3 -4 -4 -4 -4 -4 -4
0 0 0 -0 -0 -1 -1 -1 -1 -1 -1 -2 -2 -3 -3 -4 -4 -5 -5 -5 -5 -5 -5 -3 -3 -4 -3 -3 -3 -3 -3 -4 -4 -4 -4 -4 -4 -4
-0 -1 -1 -1 -1 -1 -1 -2 -2 -2 -3 -3 -4 -4 -4 -5 -5 -5 -6 -6 -5 -5 -6 -4 -3 -3 -3 -3 -3 -3 -3 -4 -4 -4 -4 -4 -4 -4
-1 -1 -2 -2 -2 -2 -2 -3 -3 -3 -4 -4 -5 -5 -6 -6 -6 -6 -6 -6 -5 -5 -5 -5 -4 -4 -3 -2 -3 -3 -3 -4 -4 -4 -4 -4 -4 -4
-2 -3 -3 -4 -4 -4 -4 -4 -5 -5 -5 -6 -6 -6 -6 -6 -6 -6 -6 -7 -7 -7 -6 -6 -6 -6 -5 -3 -3 -3 -3 -4 -4 -4 -4 -4 -4 -4
-4 -4 -5 -5 -5 -6 -6 -6 -6 -6 -6 -6 -6 -6 -6 -6 -7 -7 -7 -7 -7 -7 -7 -8 -7 -7 -7 -6 -3 -2 -3 -3 -3 -4 -4 -4 -5 -5
-5 -6 -6 -6 -6 -6 -6 -6 -7 -7 -7 -6 -6 -7 -7 -7 -7 -7 -7 -7 -7 -7 -7 -8 -8 -7 -8 -8 -5 -3 -3 -3 -4 -4 -4 -5 -5 -6
-6 -6 -7 -7 -7 -7 -7 -7 -7 -7 -7 -7 -7 -7 -7 -7 -7 -7 -7 -7 -7 -7 -7 -7 -7 -7 -8 -8 -6 -5 -4 -3 -4 -4 -5 -5 -5 -6
-7 -7 -7 -7 -7 -7 -7 -7 -7 -7 -7 -7 -7 -7 -7 -7 -7 -7 -7 -6 -6 -6 -6 -7 -7 -7 -7 -7 -7 -6 -5 -5 -4 -5 -5 -6 -6 -6
-7 -7 -7 -7 -8 -8 -8 -8 -8 -8 -8 -7 -7 -7 -7 -7 -7 -7 -7 -7 -6 -6 -5 -6 -7 -7 -7 -7 -7 -6 -5 -5 -5 -6 -6 -6 -5 -5
-8 -8 -8 -8 -8 -8 -7 -7 -7 -8 -7 -7 -7 -7 -7 -7 -7 -7 -7 -7 -7 -7 -6 -6 -7 -7 -7 -7 -6 -6 -6 -6 -6 -6 -7 -7 -6 -5
-8 -8 -8 -8 -8 -8 -8 -7 -7 -7 -7 -7 -7 -7 -7 -7 -7 -7 -7 -7 -7 -7 -7 -7 -8 -9 -9 -9 -7 -7 -7 -7 -7 -7 -7 -7 -7 -6
-8 -8 -8 -8 -8 -8 -8 -7 -7 -7 -7 -7 -7 -7 -8 -8 -8 -8 -8 -8 -8 -8 -8 -7 -8 -9 -10 -10 -9 -7 -7 -7 -7 -7 -7 -7 -7 -7
-8 -8 -8 -8 -8 -8 -7 -7 -7 -7 -7 -7 -7 -7 -8 -8 -8 -8 -8 -8 -9 -9 -8 -8 -8 -9 -9 -10 -10 -7 -6 -7 -8 -8 -8 -9 -9 -9
-7 -7 -7 -8 -7 -7 -7 -7 -7 -7 -7 -7 -7 -8 -8 -8 -8 -8 -9 -9 -9 -9 -9 -8 -8 -9 -9 -10 -10 -8 -7 -7 -7 -8 -8 -8 -9 -9
-7 -7 -7 -7 -7 -7 -7 -7 -7 -7 -7 -7 -8 -8 -8 -8 -9 -9 -9 -9 -9 -9 -9 -9 -9 -9 -9 -9 -10 -9 -9 -8 -8 -8 -7 -7 -8 -8
Wind_Speed
4 4 4 3 3 4 3 5 5 5 6 5 3 1 5 10 15 14 13 14 13 12 12 12 12 12 13 15 16 17 17 17 17 17 17 18 18 18
2 1 0 0 0 0 2 3 4 6 5 3 2 2 5 8 13 11 11 12 12 12 12 13 14 15 15 16 17 17 17 17 18 18 18 18 18 19
5 4 4 3 2 2 1 1 2 2 4 1 1 2 3 5 7 8 8 8 8 11 12 13 14 15 15 16 16 16 17 17 17 17 18 18 19 19
6 6 5 4 3 2 1 1 0 0 2 3 2 2 2 4 4 4 5 6 6 9 12 13 14 14 14 14 15 15 16 16 16 16 17 17 18 18
6 6 5 4 4 3 3 2 2 2 2 2 2 2 1 2 2 2 2 2 5 7 9 11 11 12 13 14 14 15 15 15 16 16 17 17 18 19
8 7 6 4 4 3 3 3 3 4 3 3 2 2 2 2 2 2 1 1 2 3 7 8 10 12 13 14 15 15 16 16 16 17 17 17 18 19
8 7 7 6 5 3 3 3 4 4 3 3 2 2 1 1 1 1 1 0 2 1 2 3 5 8 12 15 16 16 16 16 16 16 17 17 18 19
7 7 8 9 9 8 8 7 5 4 3 2 2 1 1 1 1 1 1 1 2 1 1 4 5 6 10 13 15 16 16 15 15 16 16 17 18 18
7 6 6 7 9 7 8 9 8 7 4 2 1 1 1 1 2 1 2 3 4 3 2 4 3 5 9 13 15 15 15 15 14 14 15 16 17 18
6 6 5 5 5 6 5 5 5 5 4 3 2 2 2 3 4 4 4 3 3 4 3 4 3 4 5 11 15 15 13 11 11 13 15 16 17 19
5 4 4 4 7 8 6 5 5 5 6 6 3 2 4 5 5 2 1 1 3 3 2 2 3 4 4 5 8 8 7 9 13 15 16 17 18 19
4 5 6 5 7 6 4 3 3 3 3 5 6 6 6 7 6 1 3 3 2 3 2 2 2 3 5 3 3 8 11 15 17 17 18 19 19 15
2 3 4 6 7 7 4 1 4 2 1 3 3 4 3 3 3 2 2 4 4 5 4 2 2 2 4 5 4 6 9 9 12 15 19 20 18 15
1 2 4 7 7 7 5 5 6 4 2 2 3 3 3 3 3 5 6 7 9 9 10 6 4 5 5 8 8 5 5 8 10 10 12 16 16 17
2 5 6 7 6 5 6 6 4 2 2 2 3 3 3 4 3 4 6 7 10 13 15 14 9 8 9 9 9 9 7 6 7 7 6 6 7 8
3 5 7 7 5 4 4 3 3 2 3 3 4 3 3 3 3 3 3 4 5 5 7 12 12 9 10 11 12 14 11 7 6 6 7 9 9 12
3 1 2 2 3 3 3 3 3 3 3 3 3 4 4 4 4 4 4 5 5 6 7 5 8 11 10 11 12 14 13 13 12 10 8 11 10 9
3 1 2 2 3 3 4 3 3 3 3 3 4 4 5 6 6 6 6 6 8 9 9 8 6 7 6 8 15 14 13 12 10 9 8 11 14 10
1 2 3 3 4 4 4 4 4 4 4 4 5 5 5 6 6 7 7 8 9 10 10 8 7 7 10 11 7 12 11 10 9 10 11 12 14 12
2 3 4 4 4 4 5 4 5 5 5 5 6 6 6 6 7 8 8 9 10 11 11 9 8 8 11 11 10 9 15 14 13 14 13 12 13 18
4 4 4 5 5 5 5 5 6 6 6 6 6 7 7 7 8 8 9 14 13 11 12 12 10 13 10 8 11 12 10 15 18 14 13 14 16 15
5 5 5 5 5 5 6 6 6 6 7 7 7 7 7 7 9 10 10 11 11 11 13 13 10 9 9 12 16 18 19 14 17 26 27 25 15 11
5 5 5 5 6 5 6 6 8 7 7 8 8 8 8 8 9 10 11 11 12 13 13 13 11 10 12 13 16 17 20 19 15 14 14 21 28 32
Wind_Direction
254 245 238 239 226 222 213 201 208 230 234 204 184 136 148 154 167 166 171 190 209 225 238 251 265 273 274 276 278 280 283 285 286 286 285 283 280 279
355 342 316 26 111 166 213 220 218 226 235 182 166 152 163 164 171 163 175 197 217 231 241 252 260 266 270 272 275 278 280 282 283 283 283 282 281 280
34 41 42 44 55 55 54 213 223 212 227 143 108 126 161 163 160 153 166 190 219 240 252 259 264 268 271 273 276 279 280 280 281 282 282 282 282 281
46 54 50 50 49 44 55 77 115 103 179 174 147 141 154 162 147 153 174 200 219 243 255 261 266 271 275 277 278 279 281 282 282 282 281 281 280 280
49 54 50 52 48 40 40 44 50 54 66 128 130 118 115 135 134 151 179 208 235 248 258 266 271 277 279 282 284 285 286 286 284 282 280 279 278 278
48 48 46 49 60 58 52 52 57 62 64 85 91 94 102 106 118 145 185 204 246 261 268 273 279 284 287 287 287 287 287 284 280 279 278 277 276 276
50 43 42 52 68 81 79 68 66 66 65 66 69 79 89 103 133 143 187 59 287 268 286 285 289 287 285 284 284 282 279 277 276 277 279 279 278 277
51 41 37 37 45 62 81 81 77 76 72 67 59 71 68 75 99 125 135 102 294 281 260 270 262 266 269 270 274 275 275 276 278 280 282 283 283 281
49 43 42 39 43 40 50 50 45 50 63 104 117 125 159 167 144 149 192 203 231 251 271 278 253 262 268 272 279 280 278 278 281 284 286 287 287 285
43 40 38 18 27 44 44 39 29 22 33 79 139 176 189 192 188 193 207 232 260 254 212 263 285 273 280 282 286 282 276 275 281 288 292 292 291 289
21 24 37 12 24 40 45 35 26 11 30 40 30 322 293 285 253 187 205 292 303 288 218 236 294 301 289 284 292 292 282 287 292 293 292 292 291 289
8 6 12 17 15 27 57 38 8 335 349 355 352 347 343 333 324 248 185 191 232 285 280 247 285 326 312 287 269 276 278 281 283 284 289 291 289 286
14 349 335 349 350 345 351 327 291 300 325 330 320 320 331 338 342 338 201 180 197 237 247 212 243 230 251 287 280 249 249 258 266 274 283 285 283 277
320 295 298 320 329 333 334 310 315 351 5 325 318 317 320 311 304 302 287 255 237 238 246 225 232 233 259 276 278 273 252 254 262 271 271 278 278 277
274 298 308 318 329 333 319 324 352 2 316 302 295 286 269 265 277 293 291 281 271 261 256 240 233 246 254 265 270 279 290 279 259 258 260 253 260 267
310 317 327 332 339 331 329 345 344 297 275 262 272 274 275 277 280 282 290 308 300 286 255 249 242 240 258 262 269 275 275 274 274 259 263 270 267 262
278 299 338 337 340 334 323 312 307 315 319 299 287 291 295 296 295 298 287 294 283 289 295 275 254 246 247 259 267 267 269 269 268 273 275 279 274 263
318 298 299 300 296 297 300 301 297 294 288 283 282 281 289 293 296 293 285 284 284 285 287 291 294 294 272 255 241 255 261 264 268 265 261 275 281 273
324 274 275 279 279 282 279 275 276 279 279 280 278 278 279 282 284 286 285 282 280 280 281 280 277 278 287 290 264 233 245 264 271 274 270 269 274 277
260 264 266 268 269 271 272 273 276 282 279 274 272 270 270 273 277 276 274 273 278 281 281 271 257 253 260 275 281 272 258 261 269 273 275 274 273 276
261 260 259 261 263 265 266 267 268 272 273 270 269 267 266 267 271 271 273 278 279 280 279 278 268 271 271 272 274 273 266 257 257 262 271 278 282 282
259 260 261 260 260 262 265 267 270 270 272 268 268 268 266 264 268 271 273 275 275 273 275 278 278 273 265 266 271 279 284 280 269 268 265 262 266 271
257 259 260 263 261 260 260 263 266 269 268 267 268 268 265 267 268 269 271 272 274 276 279 283 283 275 270 268 272 276 280 283 285 280 271 262 259 261
Height
1492 1491 1491 1490 1489 1489 1488 1488 1488 1485 1483 1484 1484 1483 1484 1486 1488 1490 1492 1495 1497 1499 1500 1501 1502 1503 1503 1503 1502 1502 1501 1500 1499 1499 1498 1498 1498 1498
1487 1486 1485 1484 1483 1483 1482 1481 1480 1480 1478 1477 1477 1478 1479 1480 1482 1484 1487 1490 1492 1493 1494 1495 1496 1496 1496 1496 1495 1495 1494 1493 1492 1491 1491 1491 1491 1491
1482 1481 1480 1479 1478 1477 1476 1476 1475 1475 1474 1473 1473 1473 1475 1476 1477 1480 1483 1484 1486 1488 1488 1489 1490 1490 1490 1489 1488 1488 1487 1486 1484 1484 1484 1484 1484 1484
1477 1477 1475 1474 1473 1472 1471 1471 1470 1470 1470 1469 1469 1470 1471 1473 1475 1476 1478 1480 1481 1482 1482 1482 1483 1483 1483 1482 1481 1481 1480 1479 1477 1477 1477 1477 1477 1477
1474 1473 1472 1471 1470 1469 1468 1467 1466 1466 1466 1466 1466 1467 1469 1470 1471 1473 1474 1475 1476 1476 1476 1476 1477 1476 1476 1475 1475 1474 1473 1472 1471 1471 1470 1470 1470 1470
1471 1470 1469 1468 1467 1466 1466 1465 1464 1464 1464 1465 1465 1465 1466 1467 1468 1469 1470 1471 1471 1470 1471 1471 1470 1470 1469 1468 1468 1467 1466 1466 1465 1465 1465 1464 1464 1464
1469 1469 1468 1467 1466 1465 1465 1464 1464 1464 1464 1464 1464 1464 1464 1464 1465 1465 1466 1466 1466 1466 1466 1465 1464 1464 1464 1462 1461 1461 1461 1460 1460 1459 1459 1458 1458 1458
1469 1469 1468 1467 1466 1465 1464 1464 1464 1463 1463 1462 1462 1462 1462 1462 1462 1462 1462 1462 1462 1462 1461 1460 1460 1459 1458 1457 1456 1456 1455 1455 1454 1454 1453 1452 1452 1451
1470 1469 1468 1467 1466 1465 1464 1463 1462 1462 1461 1461 1460 1460 1459 1459 1459 1459 1459 1458 1458 1458 1456 1454 1455 1454 1453 1452 1451 1451 1450 1450 1449 1448 1447 1446 1445 1444
1470 1469 1468 1466 1465 1464 1463 1461 1460 1460 1459 1458 1458 1457 1457 1456 1456 1456 1455 1454 1454 1453 1452 1449 1449 1449 1448 1447 1446 1446 1445 1445 1444 1442 1441 1439 1438 1436
1469 1467 1466 1465 1463 1461 1460 1459 1458 1457 1457 1456 1455 1455 1454 1454 1453 1453 1452 1451 1450 1449 1448 1446 1445 1443 1442 1442 1441 1441 1440 1439 1438 1436 1434 1432 1430 1428
1468 1466 1464 1463 1461 1459 1458 1457 1456 1455 1454 1453 1453 1452 1451 1451 1451 1450 1449 1449 1447 1446 1444 1444 1441 1439 1436 1435 1435 1435 1434 1433 1431 1429 1426 1424 1422 1419
1466 1464 1462 1461 1459 1457 1456 1455 1454 1453 1451 1451 1450 1449 1449 1448 1448 1447 1447 1446 1444 1443 1443 1441 1437 1435 1434 1429 1427 1428 1427 1425 1423 1421 1419 1416 1414 1412
1464 1462 1460 1459 1457 1456 1454 1453 1452 1451 1450 1449 1448 1447 1447 1446 1445 1444 1443 1442 1440 1439 1438 1436 1433 1431 1428 1423 1419 1418 1418 1417 1415 1413 1411 1409 1407 1405
1462 1460 1458 1457 1455 1453 1452 1451 1450 1449 1448 1447 1446 1445 1444 1443 1442 1441 1439 1437 1435 1434 1432 1430 1427 1424 1422 1418 1413 1411 1409 1407 1407 1405 1403 1401 1398 1396
1460 1458 1456 1454 1453 1451 1450 1449 1448 1447 1445 1444 1443 1442 1441 1439 1438 1436 1434 1432 1430 1429 1428 1424 1421 1418 1414 1411 1408 1403 1402 1400 1398 1397 1393 1390 1389 1386
1457 1455 1453 1452 1451 1449 1448 1447 1445 1444 1443 1442 1440 1439 1437 1435 1433 1431 1429 1426 1423 1420 1419 1418 1415 1411 1407 1404 1400 1396 1394 1392 1390 1388 1384 1380 1378 1377
1454 1452 1451 1449 1448 1446 1445 1444 1443 1441 1440 1438 1437 1435 1433 1430 1428 1426 1424 1421 1417 1414 1412 1410 1407 1403 1399 1395 1393 1389 1386 1384 1382 1379 1376 1371 1366 1367
1451 1449 1448 1446 1445 1443 1442 1440 1439 1438 1436 1434 1432 1430 1428 1425 1423 1420 1417 1414 1411 1408 1405 1403 1400 1397 1392 1385 1382 1382 1379 1375 1372 1369 1367 1363 1358 1355
1447 1446 1444 1443 1441 1440 1438 1437 1435 1434 1432 1430 1428 1425 1423 1420 1417 1414 1411 1408 1405 1401 1398 1396 1394 1391 1387 1381 1374 1370 1372 1368 1364 1360 1357 1353 1349 1346
1444 1442 1441 1439 1438 1436 1434 1433 1431 1429 1427 1425 1422 1420 1417 1414 1411 1408 1405 1401 1398 1394 1390 1387 1387 1384 1379 1374 1367 1359 1360 1360 1356 1352 1348 1344 1338 1335
1440 1438 1437 1435 1433 1432 1430 1428 1426 1424 1422 1419 1417 1414 1411 1408 1404 1401 1398 1395 1391 1387 1383 1379 1377 1375 1371 1366 1358 1352 1347 1346 1345 1343 1340 1337 1333 1325
1435 1434 1432 1431 1429 1427 1425 1423 1421 1418 1416 1413 1410 1407 1404 1401 1398 1394 1391 1387 1383 1379 1375 1371 1367 1365 1361 1356 1350 1344 1338 1334 1331 1328 1325 1325 1322 1318